Year,Month,Day,Hour,Minute,Value (Times are PST for insolation in W/m^2)
2013,06,25,00,00,0.00
2013,06,25,00,01,0.00
2013,06,25,00,02,0.00
2013,06,25,00,03,0.00
2013,06,25,00,04,0.00
2013,06,25,00,05,0.00
2013,06,25,00,06,0.00
2013,06,25,00,07,0.00
2013,06,25,00,08,0.00
2013,06,25,00,09,0.00
2013,06,25,00,10,0.00
2013,06,25,00,11,0.00
2013,06,25,00,12,0.00
2013,06,25,00,13,0.00
2013,06,25,00,14,0.00
2013,06,25,00,15,0.00
2013,06,25,00,16,0.00
2013,06,25,00,17,0.00
2013,06,25,00,18,0.00
2013,06,25,00,19,0.00
2013,06,25,00,20,0.00
2013,06,25,00,21,0.00
2013,06,25,00,22,0.00
2013,06,25,00,23,0.00
2013,06,25,00,24,0.00
2013,06,25,00,25,0.00
2013,06,25,00,26,0.00
2013,06,25,00,27,0.00
2013,06,25,00,28,0.00
2013,06,25,00,29,0.00
2013,06,25,00,30,0.00
2013,06,25,00,31,0.00
2013,06,25,00,32,0.00
2013,06,25,00,33,0.00
2013,06,25,00,34,0.00
2013,06,25,00,35,0.00
2013,06,25,00,36,0.00
2013,06,25,00,37,0.00
2013,06,25,00,38,0.00
2013,06,25,00,39,0.00
2013,06,25,00,40,0.00
2013,06,25,00,41,0.00
2013,06,25,00,42,0.00
2013,06,25,00,43,0.00
2013,06,25,00,44,0.00
2013,06,25,00,45,0.00
2013,06,25,00,46,0.00
2013,06,25,00,47,0.00
2013,06,25,00,48,0.00
2013,06,25,00,49,0.00
2013,06,25,00,50,0.00
2013,06,25,00,51,0.00
2013,06,25,00,52,0.00
2013,06,25,00,53,0.00
2013,06,25,00,54,0.00
2013,06,25,00,55,0.00
2013,06,25,00,56,0.00
2013,06,25,00,57,0.00
2013,06,25,00,58,0.00
2013,06,25,00,59,0.00
2013,06,25,01,00,0.00
2013,06,25,01,01,0.00
2013,06,25,01,02,0.00
2013,06,25,01,03,0.00
2013,06,25,01,04,0.00
2013,06,25,01,05,0.00
2013,06,25,01,06,0.00
2013,06,25,01,07,0.00
2013,06,25,01,08,0.00
2013,06,25,01,09,0.00
2013,06,25,01,10,0.00
2013,06,25,01,11,0.00
2013,06,25,01,12,0.00
2013,06,25,01,13,0.00
2013,06,25,01,14,0.00
2013,06,25,01,15,0.00
2013,06,25,01,16,0.00
2013,06,25,01,17,0.00
2013,06,25,01,18,0.00
2013,06,25,01,19,0.00
2013,06,25,01,20,0.00
2013,06,25,01,21,0.00
2013,06,25,01,22,0.00
2013,06,25,01,23,0.00
2013,06,25,01,24,0.00
2013,06,25,01,25,0.00
2013,06,25,01,26,0.00
2013,06,25,01,27,0.00
2013,06,25,01,28,0.00
2013,06,25,01,29,0.00
2013,06,25,01,30,0.00
2013,06,25,01,31,0.00
2013,06,25,01,32,0.00
2013,06,25,01,33,0.00
2013,06,25,01,34,0.00
2013,06,25,01,35,0.00
2013,06,25,01,36,0.00
2013,06,25,01,37,0.00
2013,06,25,01,38,0.00
2013,06,25,01,39,0.00
2013,06,25,01,40,0.00
2013,06,25,01,41,0.00
2013,06,25,01,42,0.00
2013,06,25,01,43,0.00
2013,06,25,01,44,0.00
2013,06,25,01,45,0.00
2013,06,25,01,46,0.00
2013,06,25,01,47,0.00
2013,06,25,01,48,0.00
2013,06,25,01,49,0.00
2013,06,25,01,50,0.00
2013,06,25,01,51,0.00
2013,06,25,01,52,0.00
2013,06,25,01,53,0.00
2013,06,25,01,54,0.00
2013,06,25,01,55,0.00
2013,06,25,01,56,0.00
2013,06,25,01,57,0.00
2013,06,25,01,58,0.00
2013,06,25,01,59,0.00
2013,06,25,02,00,0.00
2013,06,25,02,01,0.00
2013,06,25,02,02,0.00
2013,06,25,02,03,0.00
2013,06,25,02,04,0.00
2013,06,25,02,05,0.00
2013,06,25,02,06,0.00
2013,06,25,02,07,0.00
2013,06,25,02,08,0.00
2013,06,25,02,09,0.00
2013,06,25,02,10,0.00
2013,06,25,02,11,0.00
2013,06,25,02,12,0.00
2013,06,25,02,13,0.00
2013,06,25,02,14,0.00
2013,06,25,02,15,0.00
2013,06,25,02,16,0.00
2013,06,25,02,17,0.00
2013,06,25,02,18,0.00
2013,06,25,02,19,0.00
2013,06,25,02,20,0.00
2013,06,25,02,21,0.00
2013,06,25,02,22,0.00
2013,06,25,02,23,0.00
2013,06,25,02,24,0.00
2013,06,25,02,25,0.00
2013,06,25,02,26,0.00
2013,06,25,02,27,0.00
2013,06,25,02,28,0.00
2013,06,25,02,29,0.00
2013,06,25,02,30,0.00
2013,06,25,02,31,0.00
2013,06,25,02,32,0.00
2013,06,25,02,33,0.00
2013,06,25,02,34,0.00
2013,06,25,02,35,0.00
2013,06,25,02,36,0.00
2013,06,25,02,37,0.00
2013,06,25,02,38,0.00
2013,06,25,02,39,0.00
2013,06,25,02,40,0.00
2013,06,25,02,41,0.00
2013,06,25,02,42,0.00
2013,06,25,02,43,0.00
2013,06,25,02,44,0.00
2013,06,25,02,45,0.00
2013,06,25,02,46,0.00
2013,06,25,02,47,0.00
2013,06,25,02,48,0.00
2013,06,25,02,49,0.00
2013,06,25,02,50,0.00
2013,06,25,02,51,0.00
2013,06,25,02,52,0.00
2013,06,25,02,53,0.00
2013,06,25,02,54,0.00
2013,06,25,02,55,0.00
2013,06,25,02,56,0.00
2013,06,25,02,57,0.00
2013,06,25,02,58,0.00
2013,06,25,02,59,0.00
2013,06,25,03,00,0.00
2013,06,25,03,01,0.00
2013,06,25,03,02,0.00
2013,06,25,03,06,0.00
2013,06,25,03,07,0.00
2013,06,25,03,08,0.00
2013,06,25,03,09,0.00
2013,06,25,03,10,0.00
2013,06,25,03,11,0.00
2013,06,25,03,12,0.00
2013,06,25,03,13,0.00
2013,06,25,03,14,0.00
2013,06,25,03,15,0.00
2013,06,25,03,16,0.00
2013,06,25,03,17,0.00
2013,06,25,03,18,0.00
2013,06,25,03,19,0.00
2013,06,25,03,20,0.00
2013,06,25,03,21,0.00
2013,06,25,03,22,0.00
2013,06,25,03,23,0.00
2013,06,25,03,24,0.00
2013,06,25,03,25,0.00
2013,06,25,03,26,0.00
2013,06,25,03,27,0.00
2013,06,25,03,28,0.00
2013,06,25,03,29,0.00
2013,06,25,03,30,0.00
2013,06,25,03,31,0.00
2013,06,25,03,32,0.00
2013,06,25,03,33,0.00
2013,06,25,03,34,0.00
2013,06,25,03,35,0.00
2013,06,25,03,36,0.00
2013,06,25,03,37,0.00
2013,06,25,03,38,0.00
2013,06,25,03,39,0.00
2013,06,25,03,40,0.00
2013,06,25,03,41,0.00
2013,06,25,03,42,0.00
2013,06,25,03,43,0.00
2013,06,25,03,44,0.00
2013,06,25,03,45,0.00
2013,06,25,03,46,0.00
2013,06,25,03,47,0.00
2013,06,25,03,48,0.00
2013,06,25,03,49,0.00
2013,06,25,03,50,0.00
2013,06,25,03,51,0.00
2013,06,25,03,52,0.00
2013,06,25,03,53,0.00
2013,06,25,03,54,0.00
2013,06,25,03,55,0.00
2013,06,25,03,56,0.00
2013,06,25,03,57,0.00
2013,06,25,03,58,0.00
2013,06,25,03,59,0.00
2013,06,25,04,00,0.00
2013,06,25,04,01,0.00
2013,06,25,04,02,0.00
2013,06,25,04,03,0.00
2013,06,25,04,04,0.00
2013,06,25,04,05,0.00
2013,06,25,04,06,0.00
2013,06,25,04,07,0.00
2013,06,25,04,08,0.00
2013,06,25,04,09,0.00
2013,06,25,04,10,0.00
2013,06,25,04,11,0.00
2013,06,25,04,12,0.00
2013,06,25,04,13,0.00
2013,06,25,04,14,0.00
2013,06,25,04,15,0.00
2013,06,25,04,16,0.00
2013,06,25,04,17,0.00
2013,06,25,04,18,0.00
2013,06,25,04,19,0.00
2013,06,25,04,20,0.00
2013,06,25,04,21,0.00
2013,06,25,04,22,0.00
2013,06,25,04,23,0.00
2013,06,25,04,24,0.00
2013,06,25,04,25,0.00
2013,06,25,04,26,0.00
2013,06,25,04,27,0.00
2013,06,25,04,28,0.00
2013,06,25,04,29,0.00
2013,06,25,04,30,0.00
2013,06,25,04,31,0.00
2013,06,25,04,32,0.00
2013,06,25,04,33,0.00
2013,06,25,04,34,0.00
2013,06,25,04,35,0.00
2013,06,25,04,36,0.00
2013,06,25,04,37,0.00
2013,06,25,04,38,0.00
2013,06,25,04,39,0.00
2013,06,25,04,40,0.00
2013,06,25,04,41,0.00
2013,06,25,04,42,0.00
2013,06,25,04,43,0.00
2013,06,25,04,44,0.00
2013,06,25,04,45,0.00
2013,06,25,04,46,0.00
2013,06,25,04,47,0.00
2013,06,25,04,48,0.00
2013,06,25,04,49,0.00
2013,06,25,04,50,0.00
2013,06,25,04,51,0.00
2013,06,25,04,52,0.00
2013,06,25,04,53,0.00
2013,06,25,04,54,0.00
2013,06,25,04,55,0.00
2013,06,25,04,56,0.00
2013,06,25,04,57,0.00
2013,06,25,04,58,0.00
2013,06,25,04,59,0.00
2013,06,25,05,00,0.00
2013,06,25,05,01,0.00
2013,06,25,05,02,0.00
2013,06,25,05,03,0.00
2013,06,25,05,04,0.00
2013,06,25,05,05,0.00
2013,06,25,05,06,0.00
2013,06,25,05,07,0.00
2013,06,25,05,08,0.00
2013,06,25,05,09,0.00
2013,06,25,05,10,0.00
2013,06,25,05,11,0.00
2013,06,25,05,12,0.00
2013,06,25,05,13,0.00
2013,06,25,05,14,0.00
2013,06,25,05,15,0.00
2013,06,25,05,16,0.00
2013,06,25,05,17,0.00
2013,06,25,05,18,0.00
2013,06,25,05,19,0.00
2013,06,25,05,20,0.00
2013,06,25,05,21,0.00
2013,06,25,05,22,0.00
2013,06,25,05,23,0.00
2013,06,25,05,24,0.00
2013,06,25,05,25,0.00
2013,06,25,05,26,0.00
2013,06,25,05,27,0.00
2013,06,25,05,28,0.00
2013,06,25,05,29,0.00
2013,06,25,05,30,0.00
2013,06,25,05,31,0.00
2013,06,25,05,32,0.00
2013,06,25,05,33,0.00
2013,06,25,05,34,0.00
2013,06,25,05,35,0.00
2013,06,25,05,36,0.00
2013,06,25,05,37,0.00
2013,06,25,05,38,0.00
2013,06,25,05,39,0.00
2013,06,25,05,40,0.00
2013,06,25,05,41,0.00
2013,06,25,05,42,0.00
2013,06,25,05,43,0.00
2013,06,25,05,44,2.20
2013,06,25,05,45,5.00
2013,06,25,05,46,5.00
2013,06,25,05,47,5.00
2013,06,25,05,48,5.00
2013,06,25,05,49,5.00
2013,06,25,05,50,1.60
2013,06,25,05,51,0.00
2013,06,25,05,52,0.00
2013,06,25,05,53,4.00
2013,06,25,05,54,5.00
2013,06,25,05,55,6.80
2013,06,25,05,56,8.90
2013,06,25,05,57,9.00
2013,06,25,05,58,12.10
2013,06,25,05,59,14.30
2013,06,25,06,00,16.30
2013,06,25,06,01,18.20
2013,06,25,06,02,19.50
2013,06,25,06,03,20.40
2013,06,25,06,04,19.00
2013,06,25,06,05,19.00
2013,06,25,06,06,19.00
2013,06,25,06,07,18.50
2013,06,25,06,08,18.00
2013,06,25,06,09,18.00
2013,06,25,06,10,18.00
2013,06,25,06,11,18.00
2013,06,25,06,12,21.20
2013,06,25,06,13,23.00
2013,06,25,06,14,21.50
2013,06,25,06,15,21.00
2013,06,25,06,16,19.30
2013,06,25,06,17,19.00
2013,06,25,06,18,19.00
2013,06,25,06,19,19.00
2013,06,25,06,20,19.00
2013,06,25,06,21,19.10
2013,06,25,06,22,21.00
2013,06,25,06,23,21.30
2013,06,25,06,24,23.40
2013,06,25,06,25,25.00
2013,06,25,06,26,25.00
2013,06,25,06,27,24.30
2013,06,25,06,28,23.00
2013,06,25,06,29,23.00
2013,06,25,06,30,22.10
2013,06,25,06,31,20.00
2013,06,25,06,32,19.00
2013,06,25,06,33,19.00
2013,06,25,06,34,19.00
2013,06,25,06,35,19.00
2013,06,25,06,36,19.00
2013,06,25,06,37,18.30
2013,06,25,06,38,18.00
2013,06,25,06,39,18.00
2013,06,25,06,40,18.00
2013,06,25,06,41,18.00
2013,06,25,06,42,18.90
2013,06,25,06,43,19.20
2013,06,25,06,44,23.20
2013,06,25,06,45,26.60
2013,06,25,06,46,30.30
2013,06,25,06,47,32.00
2013,06,25,06,48,33.50
2013,06,25,06,49,37.80
2013,06,25,06,50,36.80
2013,06,25,06,51,40.70
2013,06,25,06,52,46.40
2013,06,25,06,53,53.00
2013,06,25,06,54,55.50
2013,06,25,06,55,60.80
2013,06,25,06,56,62.40
2013,06,25,06,57,58.30
2013,06,25,06,58,57.30
2013,06,25,06,59,63.80
2013,06,25,07,00,69.10
2013,06,25,07,01,74.50
2013,06,25,07,02,74.40
2013,06,25,07,03,74.00
2013,06,25,07,04,76.70
2013,06,25,07,05,83.70
2013,06,25,07,06,84.00
2013,06,25,07,07,73.40
2013,06,25,07,08,61.30
2013,06,25,07,09,46.20
2013,06,25,07,10,45.00
2013,06,25,07,11,36.00
2013,06,25,07,12,33.50
2013,06,25,07,13,35.60
2013,06,25,07,14,37.00
2013,06,25,07,15,39.00
2013,06,25,07,16,42.90
2013,06,25,07,17,38.50
2013,06,25,07,18,31.40
2013,06,25,07,19,30.00
2013,06,25,07,20,26.90
2013,06,25,07,21,22.40
2013,06,25,07,22,21.00
2013,06,25,07,23,19.50
2013,06,25,07,24,19.00
2013,06,25,07,25,19.00
2013,06,25,07,26,18.10
2013,06,25,07,27,18.00
2013,06,25,07,28,16.10
2013,06,25,07,29,18.00
2013,06,25,07,30,18.30
2013,06,25,07,31,22.80
2013,06,25,07,32,21.00
2013,06,25,07,33,22.40
2013,06,25,07,34,31.20
2013,06,25,07,35,34.40
2013,06,25,07,36,33.60
2013,06,25,07,37,36.50
2013,06,25,07,38,40.90
2013,06,25,07,39,44.00
2013,06,25,07,40,40.70
2013,06,25,07,41,35.00
2013,06,25,07,42,30.20
2013,06,25,07,43,29.20
2013,06,25,07,44,34.50
2013,06,25,07,45,30.70
2013,06,25,07,46,29.50
2013,06,25,07,47,37.50
2013,06,25,07,48,40.00
2013,06,25,07,49,40.00
2013,06,25,07,50,40.00
2013,06,25,07,51,62.50
2013,06,25,07,52,62.00
2013,06,25,07,53,56.90
2013,06,25,07,54,46.50
2013,06,25,07,55,45.00
2013,06,25,07,56,49.80
2013,06,25,07,57,57.00
2013,06,25,07,58,69.30
2013,06,25,07,59,70.00
2013,06,25,08,00,70.80
2013,06,25,08,01,71.20
2013,06,25,08,02,70.00
2013,06,25,08,03,70.00
2013,06,25,08,04,70.00
2013,06,25,08,05,72.20
2013,06,25,08,06,64.40
2013,06,25,08,07,58.00
2013,06,25,08,08,60.80
2013,06,25,08,09,57.50
2013,06,25,08,10,54.40
2013,06,25,08,11,50.00
2013,06,25,08,12,47.30
2013,06,25,08,13,47.00
2013,06,25,08,14,48.90
2013,06,25,08,15,47.00
2013,06,25,08,16,46.20
2013,06,25,08,17,49.50
2013,06,25,08,18,53.80
2013,06,25,08,19,55.40
2013,06,25,08,20,69.50
2013,06,25,08,21,80.60
2013,06,25,08,22,72.50
2013,06,25,08,23,70.80
2013,06,25,08,24,78.00
2013,06,25,08,25,84.90
2013,06,25,08,26,88.00
2013,06,25,08,27,90.00
2013,06,25,08,28,72.40
2013,06,25,08,29,56.70
2013,06,25,08,30,51.60
2013,06,25,08,31,49.00
2013,06,25,08,32,50.50
2013,06,25,08,33,60.00
2013,06,25,08,34,63.00
2013,06,25,08,35,60.50
2013,06,25,08,36,60.00
2013,06,25,08,37,60.00
2013,06,25,08,38,59.30
2013,06,25,08,39,45.80
2013,06,25,08,40,44.30
2013,06,25,08,41,48.30
2013,06,25,08,42,55.00
2013,06,25,08,43,48.50
2013,06,25,08,44,46.80
2013,06,25,08,45,44.10
2013,06,25,08,46,42.10
2013,06,25,08,47,44.50
2013,06,25,08,48,42.00
2013,06,25,08,49,45.20
2013,06,25,08,50,45.20
2013,06,25,08,51,44.20
2013,06,25,08,52,46.70
2013,06,25,08,53,48.30
2013,06,25,08,54,50.30
2013,06,25,08,55,49.50
2013,06,25,08,56,53.00
2013,06,25,08,57,51.60
2013,06,25,08,58,47.60
2013,06,25,08,59,46.20
2013,06,25,09,00,47.00
2013,06,25,09,01,51.00
2013,06,25,09,02,51.00
2013,06,25,09,03,50.10
2013,06,25,09,04,42.00
2013,06,25,09,05,40.60
2013,06,25,09,06,36.00
2013,06,25,09,07,40.40
2013,06,25,09,08,44.60
2013,06,25,09,09,44.20
2013,06,25,09,10,40.00
2013,06,25,09,11,42.50
2013,06,25,09,12,45.10
2013,06,25,09,13,42.90
2013,06,25,09,14,42.00
2013,06,25,09,15,40.90
2013,06,25,09,16,42.50
2013,06,25,09,17,48.50
2013,06,25,09,18,62.20
2013,06,25,09,19,68.50
2013,06,25,09,20,65.80
2013,06,25,09,21,88.60
2013,06,25,09,22,91.30
2013,06,25,09,23,123.30
2013,06,25,09,24,107.00
2013,06,25,09,25,110.70
2013,06,25,09,26,104.90
2013,06,25,09,27,105.10
2013,06,25,09,28,108.80
2013,06,25,09,29,95.30
2013,06,25,09,30,90.00
2013,06,25,09,31,88.10
2013,06,25,09,32,84.70
2013,06,25,09,33,93.20
2013,06,25,09,34,104.00
2013,06,25,09,35,106.40
2013,06,25,09,36,106.90
2013,06,25,09,37,94.60
2013,06,25,09,38,91.40
2013,06,25,09,39,97.00
2013,06,25,09,40,100.80
2013,06,25,09,41,93.80
2013,06,25,09,42,94.20
2013,06,25,09,43,95.00
2013,06,25,09,44,91.60
2013,06,25,09,45,88.30
2013,06,25,09,46,88.00
2013,06,25,09,47,94.70
2013,06,25,09,48,97.80
2013,06,25,09,49,93.00
2013,06,25,09,50,98.80
2013,06,25,09,51,132.60
2013,06,25,09,52,131.40
2013,06,25,09,53,118.00
2013,06,25,09,54,117.30
2013,06,25,09,55,111.90
2013,06,25,09,56,105.00
2013,06,25,09,57,100.50
2013,06,25,09,58,97.50
2013,06,25,09,59,98.90
2013,06,25,10,00,105.20
2013,06,25,10,01,115.20
2013,06,25,10,02,118.00
2013,06,25,10,03,108.90
2013,06,25,10,04,104.00
2013,06,25,10,05,111.10
2013,06,25,10,06,108.20
2013,06,25,10,07,99.30
2013,06,25,10,08,101.60
2013,06,25,10,09,106.80
2013,06,25,10,10,93.00
2013,06,25,10,11,86.10
2013,06,25,10,12,87.80
2013,06,25,10,13,86.30
2013,06,25,10,14,87.40
2013,06,25,10,15,82.60
2013,06,25,10,16,74.60
2013,06,25,10,17,68.40
2013,06,25,10,18,65.20
2013,06,25,10,19,62.00
2013,06,25,10,20,62.00
2013,06,25,10,21,61.10
2013,06,25,10,22,58.00
2013,06,25,10,23,56.00
2013,06,25,10,24,60.20
2013,06,25,10,25,62.30
2013,06,25,10,26,59.20
2013,06,25,10,27,63.20
2013,06,25,10,28,77.60
2013,06,25,10,29,83.40
2013,06,25,10,30,73.80
2013,06,25,10,31,61.20
2013,06,25,10,32,58.10
2013,06,25,10,33,58.00
2013,06,25,10,34,53.80
2013,06,25,10,35,51.20
2013,06,25,10,36,55.50
2013,06,25,10,37,72.70
2013,06,25,10,38,89.80
2013,06,25,10,39,99.10
2013,06,25,10,40,104.30
2013,06,25,10,41,105.60
2013,06,25,10,42,106.20
2013,06,25,10,43,104.60
2013,06,25,10,44,105.30
2013,06,25,10,45,104.50
2013,06,25,10,46,114.10
2013,06,25,10,47,125.00
2013,06,25,10,48,123.80
2013,06,25,10,49,123.00
2013,06,25,10,50,124.50
2013,06,25,10,51,123.40
2013,06,25,10,52,120.60
2013,06,25,10,53,120.00
2013,06,25,10,54,120.00
2013,06,25,10,55,105.60
2013,06,25,10,56,104.00
2013,06,25,10,57,104.10
2013,06,25,10,58,105.00
2013,06,25,10,59,105.20
2013,06,25,11,00,107.90
2013,06,25,11,01,113.60
2013,06,25,11,02,116.00
2013,06,25,11,03,116.00
2013,06,25,11,04,121.60
2013,06,25,11,05,133.80
2013,06,25,11,06,138.60
2013,06,25,11,07,142.40
2013,06,25,11,08,147.90
2013,06,25,11,09,153.20
2013,06,25,11,10,157.90
2013,06,25,11,11,163.00
2013,06,25,11,12,168.90
2013,06,25,11,13,178.00
2013,06,25,11,14,193.20
2013,06,25,11,15,208.20
2013,06,25,11,16,227.80
2013,06,25,11,17,247.30
2013,06,25,11,18,250.00
2013,06,25,11,19,298.50
2013,06,25,11,20,303.00
2013,06,25,11,21,341.60
2013,06,25,11,22,352.00
2013,06,25,11,23,355.80
2013,06,25,11,24,371.60
2013,06,25,11,25,372.60
2013,06,25,11,26,359.50
2013,06,25,11,27,335.90
2013,06,25,11,28,330.00
2013,06,25,11,29,326.80
2013,06,25,11,30,320.10
2013,06,25,11,31,318.00
2013,06,25,11,32,300.60
2013,06,25,11,33,288.00
2013,06,25,11,34,288.00
2013,06,25,11,35,280.80
2013,06,25,11,36,275.20
2013,06,25,11,37,280.80
2013,06,25,11,38,291.80
2013,06,25,11,39,305.80
2013,06,25,11,40,308.00
2013,06,25,11,41,310.70
2013,06,25,11,42,324.30
2013,06,25,11,43,331.90
2013,06,25,11,44,330.40
2013,06,25,11,45,333.30
2013,06,25,11,46,326.20
2013,06,25,11,47,319.40
2013,06,25,11,48,306.90
2013,06,25,11,49,299.20
2013,06,25,11,50,292.20
2013,06,25,11,51,281.80
2013,06,25,11,52,274.00
2013,06,25,11,53,260.50
2013,06,25,11,54,236.50
2013,06,25,11,55,220.60
2013,06,25,11,56,213.00
2013,06,25,11,57,203.40
2013,06,25,11,58,193.80
2013,06,25,11,59,190.50
2013,06,25,12,00,190.00
2013,06,25,12,01,188.40
2013,06,25,12,02,183.80
2013,06,25,12,03,177.00
2013,06,25,12,04,176.00
2013,06,25,12,05,165.60
2013,06,25,12,06,165.00
2013,06,25,12,07,173.30
2013,06,25,12,08,187.60
2013,06,25,12,09,207.00
2013,06,25,12,10,232.90
2013,06,25,12,11,262.00
2013,06,25,12,12,291.40
2013,06,25,12,13,322.20
2013,06,25,12,14,356.20
2013,06,25,12,15,392.40
2013,06,25,12,16,415.00
2013,06,25,12,17,415.00
2013,06,25,12,18,440.90
2013,06,25,12,19,462.00
2013,06,25,12,20,480.60
2013,06,25,12,21,492.00
2013,06,25,12,22,468.90
2013,06,25,12,23,462.80
2013,06,25,12,24,503.20
2013,06,25,12,25,520.60
2013,06,25,12,26,490.50
2013,06,25,12,27,474.20
2013,06,25,12,28,455.00
2013,06,25,12,29,437.00
2013,06,25,12,30,412.40
2013,06,25,12,31,367.50
2013,06,25,12,32,400.60
2013,06,25,12,33,401.20
2013,06,25,12,34,367.50
2013,06,25,12,35,373.00
2013,06,25,12,36,368.10
2013,06,25,12,37,378.80
2013,06,25,12,38,411.00
2013,06,25,12,39,398.40
2013,06,25,12,40,384.10
2013,06,25,12,41,433.50
2013,06,25,12,42,469.40
2013,06,25,12,43,459.00
2013,06,25,12,44,459.00
2013,06,25,12,45,459.00
2013,06,25,12,46,664.50
2013,06,25,12,47,733.00
2013,06,25,12,48,791.70
2013,06,25,12,49,802.00
2013,06,25,12,50,802.00
2013,06,25,12,51,802.00
2013,06,25,12,52,802.00
2013,06,25,12,53,767.50
2013,06,25,12,54,445.10
2013,06,25,12,55,378.80
2013,06,25,12,56,378.40
2013,06,25,12,57,360.00
2013,06,25,12,58,360.60
2013,06,25,12,59,351.50
2013,06,25,13,00,331.20
2013,06,25,13,01,333.40
2013,06,25,13,02,330.90
2013,06,25,13,03,340.20
2013,06,25,13,04,346.50
2013,06,25,13,05,355.50
2013,06,25,13,06,343.20
2013,06,25,13,07,340.20
2013,06,25,13,08,335.90
2013,06,25,13,09,332.00
2013,06,25,13,10,322.50
2013,06,25,13,11,329.60
2013,06,25,13,12,332.00
2013,06,25,13,13,389.60
2013,06,25,13,14,396.00
2013,06,25,13,15,405.10
2013,06,25,13,16,577.90
2013,06,25,13,17,583.10
2013,06,25,13,18,648.30
2013,06,25,13,19,736.40
2013,06,25,13,20,804.80
2013,06,25,13,21,861.00
2013,06,25,13,22,861.00
2013,06,25,13,23,904.60
2013,06,25,13,24,988.10
2013,06,25,13,25,1022.90
2013,06,25,13,26,999.00
2013,06,25,13,27,963.00
2013,06,25,13,28,1071.60
2013,06,25,13,29,1096.60
2013,06,25,13,30,1073.60
2013,06,25,13,31,1079.50
2013,06,25,13,32,1081.00
2013,06,25,13,33,1081.00
2013,06,25,13,34,1081.00
2013,06,25,13,35,1033.40
2013,06,25,13,36,1094.30
2013,06,25,13,37,1102.00
2013,06,25,13,38,1101.50
2013,06,25,13,39,1092.00
2013,06,25,13,40,1092.00
2013,06,25,13,41,1092.00
2013,06,25,13,42,1092.00
2013,06,25,13,43,927.00
2013,06,25,13,44,448.20
2013,06,25,13,45,497.00
2013,06,25,13,46,497.00
2013,06,25,13,47,710.90
2013,06,25,13,48,1005.00
2013,06,25,13,49,917.50
2013,06,25,13,50,880.00
2013,06,25,13,51,919.00
2013,06,25,13,52,935.00
2013,06,25,13,53,949.00
2013,06,25,13,54,949.00
2013,06,25,13,55,724.80
2013,06,25,13,56,650.00
2013,06,25,13,57,650.00
2013,06,25,13,58,650.00
2013,06,25,13,59,533.00
2013,06,25,14,00,520.00
2013,06,25,14,01,518.30
2013,06,25,14,02,487.00
2013,06,25,14,03,496.00
2013,06,25,14,04,577.00
2013,06,25,14,05,589.20
2013,06,25,14,06,649.50
2013,06,25,14,07,661.20
2013,06,25,14,08,591.50
2013,06,25,14,09,561.00
2013,06,25,14,10,576.20
2013,06,25,14,11,578.80
2013,06,25,14,12,551.00
2013,06,25,14,13,540.30
2013,06,25,14,14,534.00
2013,06,25,14,15,593.40
2013,06,25,14,16,628.00
2013,06,25,14,17,628.00
2013,06,25,14,18,628.00
2013,06,25,14,19,628.00
2013,06,25,14,20,628.00
2013,06,25,14,21,600.80
2013,06,25,14,22,596.00
2013,06,25,14,23,596.00
2013,06,25,14,24,596.00
2013,06,25,14,25,587.50
2013,06,25,14,26,436.40
2013,06,25,14,27,458.40
2013,06,25,14,28,466.00
2013,06,25,14,29,466.00
2013,06,25,14,30,466.00
2013,06,25,14,31,466.00
2013,06,25,14,32,466.00
2013,06,25,14,33,466.00
2013,06,25,14,34,457.60
2013,06,25,14,35,436.00
2013,06,25,14,36,427.00
2013,06,25,14,37,427.00
2013,06,25,14,38,484.00
2013,06,25,14,39,522.00
2013,06,25,14,40,522.00
2013,06,25,14,41,672.50
2013,06,25,14,42,737.00
2013,06,25,14,43,737.00
2013,06,25,14,44,737.00
2013,06,25,14,45,737.00
2013,06,25,14,46,737.00
2013,06,25,14,47,737.00
2013,06,25,14,48,737.00
2013,06,25,14,49,737.00
2013,06,25,14,50,698.80
2013,06,25,14,51,494.50
2013,06,25,14,52,561.00
2013,06,25,14,53,561.00
2013,06,25,14,54,498.60
2013,06,25,14,55,339.00
2013,06,25,14,56,303.00
2013,06,25,14,57,272.20
2013,06,25,14,58,236.40
2013,06,25,14,59,198.00
2013,06,25,15,00,178.00
2013,06,25,15,01,132.20
2013,06,25,15,02,90.70
2013,06,25,15,03,78.80
2013,06,25,15,04,78.50
2013,06,25,15,05,86.10
2013,06,25,15,06,103.20
2013,06,25,15,07,130.80
2013,06,25,15,08,171.90
2013,06,25,15,09,233.80
2013,06,25,15,10,237.00
2013,06,25,15,11,408.00
2013,06,25,15,12,408.00
2013,06,25,15,13,431.00
2013,06,25,15,14,572.40
2013,06,25,15,15,633.00
2013,06,25,15,16,697.20
2013,06,25,15,17,847.00
2013,06,25,15,18,804.00
2013,06,25,15,19,724.00
2013,06,25,15,20,724.00
2013,06,25,15,21,724.00
2013,06,25,15,22,654.00
2013,06,25,15,23,567.30
2013,06,25,15,24,521.60
2013,06,25,15,25,504.00
2013,06,25,15,26,573.30
2013,06,25,15,27,603.00
2013,06,25,15,28,603.00
2013,06,25,15,29,456.60
2013,06,25,15,30,415.80
2013,06,25,15,31,411.40
2013,06,25,15,32,434.70
2013,06,25,15,33,467.40
2013,06,25,15,34,469.00
2013,06,25,15,35,469.00
2013,06,25,15,36,463.50
2013,06,25,15,37,417.80
2013,06,25,15,38,423.80
2013,06,25,15,39,433.80
2013,06,25,15,40,461.10
2013,06,25,15,41,496.00
2013,06,25,15,42,552.80
2013,06,25,15,43,645.00
2013,06,25,15,44,576.40
2013,06,25,15,45,503.80
2013,06,25,15,46,506.00
2013,06,25,15,47,584.70
2013,06,25,15,48,642.00
2013,06,25,15,49,642.00
2013,06,25,15,50,642.00
2013,06,25,15,51,642.00
2013,06,25,15,52,642.00
2013,06,25,15,53,551.90
2013,06,25,15,54,591.50
2013,06,25,15,55,598.00
2013,06,25,15,56,598.00
2013,06,25,15,57,291.70
2013,06,25,15,58,266.80
2013,06,25,15,59,238.70
2013,06,25,16,00,211.40
2013,06,25,16,01,188.80
2013,06,25,16,02,172.60
2013,06,25,16,03,163.00
2013,06,25,16,04,159.50
2013,06,25,16,05,153.80
2013,06,25,16,06,157.10
2013,06,25,16,07,163.10
2013,06,25,16,08,167.00
2013,06,25,16,09,188.10
2013,06,25,16,10,219.00
2013,06,25,16,11,237.80
2013,06,25,16,12,244.90
2013,06,25,16,13,244.50
2013,06,25,16,14,236.50
2013,06,25,16,15,218.00
2013,06,25,16,16,197.90
2013,06,25,16,17,178.00
2013,06,25,16,18,164.30
2013,06,25,16,19,153.50
2013,06,25,16,20,149.10
2013,06,25,16,21,151.50
2013,06,25,16,22,157.60
2013,06,25,16,23,170.40
2013,06,25,16,24,190.00
2013,06,25,16,25,206.00
2013,06,25,16,26,221.60
2013,06,25,16,27,266.80
2013,06,25,16,28,293.00
2013,06,25,16,29,322.90
2013,06,25,16,30,380.80
2013,06,25,16,31,425.00
2013,06,25,16,32,421.10
2013,06,25,16,33,443.50
2013,06,25,16,34,447.60
2013,06,25,16,35,438.00
2013,06,25,16,36,457.50
2013,06,25,16,37,500.80
2013,06,25,16,38,510.00
2013,06,25,16,39,388.50
2013,06,25,16,40,360.70
2013,06,25,16,41,360.00
2013,06,25,16,42,322.80
2013,06,25,16,43,318.00
2013,06,25,16,44,318.00
2013,06,25,16,45,323.90
2013,06,25,16,46,362.30
2013,06,25,16,47,378.10
2013,06,25,16,48,367.30
2013,06,25,16,49,403.00
2013,06,25,16,50,489.10
2013,06,25,16,51,649.00
2013,06,25,16,52,649.00
2013,06,25,16,53,505.50
2013,06,25,16,54,375.20
2013,06,25,16,55,390.90
2013,06,25,16,56,386.20
2013,06,25,16,57,382.30
2013,06,25,16,58,403.50
2013,06,25,16,59,365.40
2013,06,25,17,00,327.80
2013,06,25,17,01,304.30
2013,06,25,17,02,284.00
2013,06,25,17,03,272.10
2013,06,25,17,04,265.60
2013,06,25,17,05,265.00
2013,06,25,17,06,254.40
2013,06,25,17,07,243.50
2013,06,25,17,08,239.00
2013,06,25,17,09,240.00
2013,06,25,17,10,244.50
2013,06,25,17,11,245.10
2013,06,25,17,12,240.80
2013,06,25,17,13,236.00
2013,06,25,17,14,229.60
2013,06,25,17,15,216.90
2013,06,25,17,16,211.10
2013,06,25,17,17,209.00
2013,06,25,17,18,209.00